Theta_e
315 315 315 314 314 315 316 316 315 315 314 315 314 314 314 312 314 316 316 316 316 316 316 318 318 316 319 320 321 322 321 330 337 340 341 339 340 341 342 342 344 346 347 343 341 342 342 341 341 340 340 340 338 339 340 339 338 338 338 339 339 339 339 338 339 339 337 336 334 335 336 336 335 335 335 336 336 336 335 335 336 336 335 335 334 335
316 316 315 314 314 315 317 321 321 319 318 317 315 314 315 315 314 316 316 315 318 320 318 319 319 318 321 320 320 321 319 327 337 340 340 339 338 337 339 341 342 344 344 341 339 339 339 339 340 338 339 339 338 338 339 337 336 338 339 339 339 339 339 338 338 338 339 338 337 336 336 336 335 334 335 336 335 334 334 335 336 336 335 335 335 334
317 316 315 313 314 316 317 320 322 321 320 319 318 315 316 317 315 318 319 316 317 321 319 320 318 320 324 323 321 322 319 324 335 339 337 338 338 336 337 338 340 344 345 343 339 336 335 335 337 336 336 337 337 337 337 335 335 338 339 339 339 339 338 338 338 338 338 338 337 337 336 335 335 333 334 336 335 334 335 336 336 335 335 335 334 333
317 315 314 314 315 317 318 319 321 322 322 321 318 316 316 318 315 317 320 316 317 321 322 321 320 324 328 324 322 323 321 321 330 337 336 335 336 336 336 335 338 343 345 342 338 335 333 333 333 334 334 335 334 335 335 334 336 339 339 339 339 339 338 338 338 337 337 337 336 336 335 335 335 335 335 335 335 335 336 336 336 335 335 334 334 334
316 314 314 314 315 316 317 319 321 321 322 323 321 318 318 319 316 315 318 319 322 325 327 323 321 326 328 322 321 322 321 319 321 331 335 335 335 334 335 335 336 341 342 341 337 335 333 332 332 333 333 333 333 334 334 330 333 338 339 339 339 338 338 338 338 337 337 337 335 335 335 334 334 335 335 335 335 336 335 335 335 335 334 334 334 334
315 317 316 314 314 314 314 317 319 319 320 324 326 322 320 320 319 316 316 319 320 321 325 322 317 325 330 320 320 320 318 319 317 320 327 332 335 334 334 335 336 339 339 339 337 334 334 332 331 332 332 333 333 334 335 332 332 336 338 339 339 338 338 338 338 338 338 336 335 335 334 334 334 334 335 335 335 335 335 335 335 335 335 335 335 334
315 317 318 315 314 314 313 313 315 319 321 322 324 323 322 321 319 317 314 314 315 316 323 322 317 322 326 320 320 320 317 319 319 319 320 325 331 333 334 334 337 340 338 337 336 333 333 332 331 331 332 333 333 334 336 336 336 338 338 339 339 338 338 338 338 338 337 336 336 335 334 334 334 334 334 334 334 334 334 335 335 335 335 336 335 334
317 317 318 318 316 314 313 313 315 320 321 321 322 321 319 319 317 317 314 313 316 320 323 322 316 315 316 320 324 320 317 318 317 319 320 318 324 331 335 335 338 341 339 338 336 334 333 331 331 331 331 333 335 336 338 337 337 340 340 339 339 339 339 338 338 338 338 337 336 336 334 334 334 334 334 334 334 333 333 335 335 335 335 335 335 334
319 319 318 319 318 315 315 316 318 320 320 321 321 319 317 317 316 316 315 315 317 318 317 318 315 312 314 324 326 316 318 323 323 324 325 323 325 331 335 337 340 341 341 339 336 335 333 331 331 331 331 333 336 338 340 339 339 340 341 340 339 339 339 338 338 338 337 337 336 336 334 333 333 334 334 334 334 334 334 335 335 335 334 334 334 334
319 319 318 317 317 317 317 318 319 318 319 320 319 318 317 315 317 318 318 317 316 316 316 317 314 312 317 326 324 319 324 328 330 330 330 329 330 332 337 342 344 344 344 341 336 335 333 331 331 331 331 332 334 337 340 340 340 341 341 340 339 339 338 338 337 337 337 336 336 335 335 334 334 334 334 334 333 333 334 335 335 335 334 334 333 334
315 318 319 317 317 318 319 319 319 317 317 318 317 316 316 316 318 320 321 316 314 319 320 317 316 313 314 322 326 328 330 331 333 332 332 332 331 334 338 342 344 343 344 342 338 335 333 332 332 331 332 332 333 335 338 339 339 340 340 339 339 338 337 337 337 337 336 335 335 335 334 334 334 335 335 334 333 333 333 334 335 334 334 334 333 333
313 315 318 317 317 318 318 318 318 317 316 315 316 315 315 318 317 317 319 315 315 323 320 312 314 312 312 322 331 334 333 333 335 332 331 333 334 335 336 338 340 340 341 341 340 338 335 334 332 331 332 332 332 334 336 337 337 337 338 338 338 337 336 337 337 336 335 334 335 334 334 334 334 335 334 333 332 332 333 333 333 334 333 333 332 332
314 315 316 317 318 317 317 318 316 316 316 314 315 316 316 316 316 316 318 317 319 324 320 312 312 312 317 328 334 336 335 334 334 331 329 331 336 339 340 343 345 342 338 338 338 336 334 333 331 330 331 331 332 333 334 334 335 335 337 338 337 337 336 336 337 336 335 335 335 334 334 334 335 335 333 333 332 332 332 332 332 332 332 332 332 332
313 315 314 315 318 317 317 317 315 314 316 315 315 317 318 317 317 318 318 318 319 319 317 315 313 315 325 335 336 337 336 334 334 333 331 332 335 339 339 341 342 338 333 331 329 329 328 328 328 328 329 328 328 330 331 332 333 334 336 337 337 337 336 336 337 335 334 334 334 333 333 334 335 334 333 333 332 332 333 332 332 331 331 332 332 332
315 317 316 315 317 318 317 317 317 316 316 317 316 318 319 317 316 318 318 317 319 322 322 318 315 322 335 343 339 336 334 333 335 335 335 334 334 335 334 334 335 333 331 329 327 327 328 327 327 327 328 328 327 327 327 329 332 334 336 336 337 337 336 336 335 331 330 332 331 331 331 332 334 334 333 333 333 333 333 331 331 331 331 332 332 332
314 317 318 315 316 317 317 317 318 317 315 318 316 313 317 319 317 316 318 317 320 329 329 322 324 331 337 339 337 334 334 335 335 335 335 334 331 331 331 332 332 330 330 329 328 328 328 327 327 327 328 328 328 327 327 327 330 333 334 334 336 336 336 336 332 327 328 330 328 329 329 329 333 335 334 334 334 333 332 331 331 332 332 332 332 332
315 320 318 314 316 316 317 318 316 316 317 318 315 313 317 321 318 315 319 320 318 325 324 322 335 339 333 335 336 334 336 335 335 335 333 332 330 330 331 331 331 330 329 328 328 327 327 327 327 327 328 328 327 328 328 327 328 329 330 332 334 334 333 333 331 328 329 329 328 330 330 329 333 335 334 334 334 333 333 332 332 332 332 332 331 331
319 322 321 315 315 315 316 317 316 315 317 315 314 315 316 316 316 313 316 319 318 323 320 319 334 339 335 339 337 333 338 336 334 334 333 331 330 329 330 329 329 329 328 327 328 328 327 327 326 327 328 328 327 327 328 328 329 329 329 330 331 331 330 331 331 329 329 329 330 332 332 332 334 334 333 333 333 333 333 333 333 332 332 332 330 329
317 317 320 318 316 317 316 315 316 315 314 315 315 316 317 320 319 312 312 319 322 324 319 317 330 336 335 338 335 333 339 337 333 334 333 332 330 329 328 328 328 328 328 328 328 329 328 327 326 327 327 328 328 327 327 328 328 329 329 329 330 330 329 329 329 329 329 330 332 333 333 333 333 331 331 331 332 333 332 331 331 331 330 330 329 328
320 320 323 322 316 317 316 315 318 318 315 315 315 314 319 323 321 316 315 319 322 325 322 321 331 336 333 333 333 333 335 335 334 334 332 330 329 328 327 327 326 326 327 327 328 329 328 327 327 327 327 328 328 327 327 327 328 328 329 329 329 328 328 329 329 330 331 331 332 333 333 332 331 330 330 331 331 332 330 330 330 329 328 328 327 327
320 322 325 325 319 317 316 317 320 319 316 316 314 314 316 318 320 320 319 317 318 323 326 326 331 335 333 331 332 333 333 333 334 333 331 329 327 327 327 326 326 326 327 328 328 328 327 327 327 327 327 328 328 327 327 327 328 328 328 328 329 328 328 329 329 329 331 332 332 333 332 331 331 331 331 329 329 329 329 329 329 328 328 328 327 327
320 322 325 325 320 317 318 317 317 318 317 316 315 315 315 317 319 320 321 320 316 319 328 334 336 335 333 330 331 332 332 332 332 330 329 328 327 327 327 326 327 327 328 328 328 327 326 327 328 328 328 328 328 328 328 328 327 327 328 328 328 329 329 329 329 329 331 332 332 333 331 331 332 331 330 328 328 329 328 328 328 328 328 327 327 327
327 327 324 322 320 318 318 316 316 318 317 316 316 315 316 317 317 318 325 328 321 320 329 336 338 335 331 329 329 330 331 332 330 328 327 327 326 326 326 326 326 327 327 326 325 325 325 325 327 328 329 328 328 328 328 328 327 327 327 327 327 329 329 329 329 330 331 331 332 332 331 331 332 330 329 328 328 328 327 327 328 328 328 327 327 326
326 324 322 320 320 321 319 317 316 316 315 317 318 318 316 315 314 319 331 337 332 328 329 332 335 333 331 329 329 329 330 330 328 327 326 325 325 324 323 324 324 324 324 323 322 322 323 324 324 325 326 327 327 327 327 328 327 327 327 327 326 327 329 329 330 331 331 330 331 332 331 331 331 329 328 329 329 328 328 327 328 328 327 326 326 326
325 326 330 325 321 322 322 319 322 325 323 321 322 325 322 317 320 324 330 338 335 328 328 334 336 334 332 331 329 328 328 328 327 326 324 324 324 323 322 321 321 320 321 321 320 320 320 321 322 322 323 324 325 325 325 326 326 327 327 327 327 326 327 328 329 329 329 329 330 331 330 330 330 328 328 329 329 328 328 327 327 327 326 325 326 326
327 328 332 330 328 329 326 324 328 331 330 326 325 328 326 323 328 330 330 335 334 327 330 337 336 334 332 331 329 328 328 327 325 324 323 322 322 322 321 319 318 318 317 317 318 318 317 318 318 319 321 321 322 322 323 323 324 325 326 327 328 327 327 327 328 328 329 329 330 329 329 328 328 328 328 329 328 328 327 326 326 326 325 325 326 325
329 331 331 331 332 332 328 327 328 328 328 328 327 328 328 327 330 333 336 336 332 331 333 331 332 334 333 331 329 328 326 324 323 323 322 321 321 320 319 317 316 316 315 314 315 315 315 315 315 316 317 319 320 320 320 321 321 322 323 326 327 327 327 327 327 327 328 329 329 329 328 327 327 328 329 328 327 327 326 325 325 326 326 325 325 324
332 332 331 331 330 328 326 327 327 325 324 327 328 328 329 330 331 336 338 334 332 336 333 327 330 334 332 330 328 325 323 323 322 321 320 320 319 318 316 315 314 313 313 312 312 312 313 314 314 313 314 315 317 318 318 318 318 319 320 322 325 326 325 326 326 326 327 328 328 328 328 328 327 328 328 328 327 326 325 324 325 325 325 325 324 323
330 329 329 331 329 327 327 326 325 325 325 325 326 327 328 330 332 334 334 332 334 338 332 327 330 332 329 327 324 322 321 320 319 319 318 318 317 315 314 313 312 312 312 311 310 310 310 311 312 312 312 312 314 316 317 316 316 317 317 318 321 324 325 325 326 327 327 327 328 329 328 328 328 328 327 327 327 326 325 324 324 324 325 325 324 323
329 327 326 328 329 328 330 328 324 325 326 324 324 324 325 327 329 331 332 331 332 332 328 326 327 327 325 323 320 318 317 315 315 315 314 315 315 314 313 311 311 311 311 309 309 308 308 308 310 311 310 310 313 315 315 314 314 314 315 316 318 321 324 324 325 326 326 327 327 328 328 328 328 327 327 327 327 326 325 324 323 323 324 324 323 323
328 327 325 326 328 328 330 329 325 325 325 324 322 322 323 325 327 328 330 331 331 329 325 325 325 324 322 320 316 314 313 312 312 311 310 310 311 311 311 310 310 310 309 309 308 307 307 307 307 308 308 309 312 314 313 312 312 312 313 314 315 318 321 323 323 324 326 327 326 327 327 327 327 327 326 326 326 325 325 324 323 323 323 322 322 322
327 327 324 325 329 327 326 327 327 326 326 324 321 320 322 325 326 326 327 327 329 328 326 325 325 324 320 315 312 311 311 310 310 310 309 308 307 308 308 308 308 308 307 307 306 306 306 306 306 306 306 307 310 312 311 311 311 311 311 312 313 315 318 321 321 322 324 326 325 325 326 326 326 325 325 325 325 325 325 324 323 322 321 321 320 321
325 326 325 326 328 325 325 327 327 327 329 327 322 318 320 323 323 323 323 324 325 326 326 326 325 320 316 312 311 309 308 308 308 308 307 307 306 306 306 306 306 305 305 305 305 304 305 305 305 305 305 305 307 309 310 309 309 309 310 310 312 313 315 317 319 320 322 323 324 325 325 325 324 324 324 324 324 324 324 323 323 322 321 321 321 321
323 324 325 326 326 325 326 328 328 328 327 324 319 317 318 321 321 321 322 321 320 320 319 319 317 314 312 310 309 308 307 307 306 306 305 305 305 305 305 305 304 304 304 304 304 304 304 304 305 305 304 304 305 306 308 308 308 308 308 309 310 312 312 314 316 318 319 322 323 323 324 324 323 322 322 323 323 322 322 322 322 321 321 321 321 321
324 323 324 324 324 325 325 327 328 327 323 319 316 315 316 319 319 318 318 318 317 316 314 313 312 310 309 308 306 306 305 304 304 304 303 303 304 304 304 303 303 303 302 303 303 303 303 303 304 304 304 304 304 304 305 306 306 307 306 307 308 309 310 311 312 314 316 319 320 321 322 322 322 322 321 321 320 320 320 320 320 320 319 319 319 319
327 325 324 325 325 324 323 324 326 323 318 316 315 314 315 317 318 318 319 317 315 314 313 312 310 308 307 306 305 305 304 303 303 303 302 302 302 302 302 302 302 302 301 301 302 302 302 302 302 303 304 304 304 304 304 304 305 305 305 305 306 307 308 309 309 310 312 314 317 319 320 320 320 320 320 320 320 319 318 318 318 319 319 319 318 316
322 323 324 325 324 323 321 321 321 319 316 316 315 314 314 315 315 317 319 317 315 313 311 310 310 308 307 306 305 305 304 304 303 303 302 301 302 302 302 302 302 301 301 301 301 301 301 301 301 302 303 304 304 304 304 304 303 303 304 304 304 305 306 307 308 308 309 311 313 316 318 319 319 318 318 319 319 319 318 318 318 317 317 317 317 317
317 320 323 324 323 321 319 318 319 320 318 315 313 312 312 313 314 315 317 316 314 313 311 310 309 308 307 307 306 307 307 306 304 303 302 301 301 301 301 301 301 301 301 301 300 301 301 301 301 301 302 302 303 303 304 304 303 303 303 302 303 303 304 305 306 307 307 308 311 313 316 317 318 318 318 318 317 317 317 318 318 318 317 317 318 320
318 319 321 322 321 320 320 320 320 320 317 313 310 309 309 311 313 315 317 316 314 312 311 310 309 309 308 308 308 308 309 307 304 302 301 301 301 301 301 301 300 300 300 300 300 301 300 300 300 300 301 301 301 302 303 303 303 303 302 302 302 302 302 303 304 305 306 307 308 311 313 315 316 316 317 318 318 318 318 319 319 319 319 320 321 321
322 321 318 318 320 321 322 320 317 316 313 309 308 308 308 309 313 317 320 317 312 311 311 310 309 309 307 307 307 307 306 304 303 301 301 300 300 300 300 301 300 300 300 300 300 301 301 300 300 300 300 300 300 301 301 302 302 302 302 302 302 301 301 302 303 305 305 306 307 309 311 312 312 313 314 316 318 319 319 319 320 320 320 320 320 320
321 319 317 318 319 320 320 317 314 312 309 306 306 307 307 310 315 319 319 314 309 308 308 306 306 305 304 304 304 303 302 301 301 300 299 299 299 299 299 299 299 299 300 300 300 300 301 301 300 300 300 299 299 299 300 301 301 301 301 302 302 302 302 301 302 303 305 305 306 307 308 308 309 309 310 312 315 318 318 318 319 319 319 319 319 318
316 316 318 319 318 317 316 314 313 312 307 304 305 306 307 312 317 316 313 310 307 305 304 303 302 301 301 301 300 300 299 298 298 298 298 297 298 298 298 298 298 299 299 300 300 300 301 301 301 300 301 300 300 299 299 299 300 300 301 301 302 303 303 301 300 301 302 303 304 305 306 306 306 306 307 308 311 313 314 315 316 317 317 317 317 316
311 313 315 313 313 316 316 314 314 313 307 303 306 308 308 311 313 311 308 307 305 304 302 302 301 300 299 299 299 298 298 297 297 297 297 297 298 298 298 298 298 298 299 299 300 299 300 301 300 300 301 301 300 300 300 300 299 300 301 301 301 302 303 302 301 300 300 301 302 302 303 304 304 305 305 305 307 308 308 310 312 313 314 314 314 313
309 313 314 310 309 314 315 312 310 309 304 303 306 308 308 308 309 308 306 305 304 302 301 300 299 299 299 298 298 298 297 297 297 297 298 298 298 298 298 298 299 299 300 300 300 299 299 299 300 300 300 300 300 300 300 300 300 300 300 301 301 301 301 302 302 302 302 302 302 302 302 302 302 303 303 304 305 305 305 306 307 308 310 311 312 310
307 309 310 307 306 308 309 307 305 304 303 303 305 306 307 307 307 307 305 303 302 301 300 299 298 298 298 297 297 297 297 298 297 297 298 299 299 298 298 298 299 300 300 300 300 300 300 299 299 299 300 300 300 300 300 300 300 300 301 301 302 301 301 301 301 302 302 302 302 302 302 301 300 300 301 302 304 304 304 303 303 304 305 306 306 307
306 305 307 306 306 305 305 304 304 303 303 303 304 306 306 306 306 305 303 302 301 300 299 299 298 298 298 298 298 297 297 298 298 298 298 298 297 297 297 298 299 300 300 300 299 300 300 300 299 299 299 299 299 299 300 300 300 301 301 302 301 301 301 301 300 300 300 301 300 301 302 302 300 299 298 299 301 303 303 303 303 302 303 303 303 303
306 306 306 306 306 306 305 304 303 303 302 303 304 304 304 305 305 303 302 301 301 300 299 299 299 299 299 298 298 298 298 299 299 299 299 298 297 297 297 298 299 299 299 300 299 299 300 300 300 299 299 299 299 299 299 300 300 301 302 302 302 301 301 300 301 300 299 298 297 298 301 301 300 298 296 296 297 300 301 302 302 302 301 301 302 303
307 306 305 305 305 305 305 303 302 302 302 303 303 302 303 304 304 302 302 301 301 300 300 300 300 299 299 299 299 299 299 299 299 300 299 299 298 298 298 298 299 299 299 300 300 299 300 300 300 300 300 299 299 299 299 299 300 301 301 302 302 301 301 301 301 300 300 298 296 296 297 298 296 295 294 294 294 295 296 297 298 298 297 297 298 300
307 306 305 304 304 304 303 303 302 302 302 302 302 301 301 302 302 302 301 301 301 301 300 300 300 300 300 300 300 299 299 299 299 299 299 299 298 298 298 298 299 300 300 300 300 300 300 300 300 300 300 299 299 299 299 299 300 300 301 301 301 301 301 300 300 300 300 299 297 295 296 297 296 295 294 294 294 294 294 295 295 295 294 294 295 296
306 305 305 305 305 305 304 303 303 303 302 302 302 301 300 300 300 300 300 300 300 300 300 300 300 300 300 300 300 300 300 300 300 299 299 299 299 298 298 299 300 300 300 300 300 300 300 300 299 299 299 299 299 299 299 299 300 300 300 300 300 300 300 300 299 299 299 299 298 297 298 298 298 297 295 295 295 296 296 296 296 296 296 295 295 295
306 306 306 306 305 305 304 303 303 303 302 302 302 301 300 300 300 300 300 300 300 300 299 299 299 299 299 299 299 299 299 299 299 298 298 298 298 298 298 298 299 299 299 299 299 299 299 299 299 299 299 299 299 299 299 299 299 300 300 300 300 299 299 299 299 299 299 299 299 299 299 299 299 298 297 297 297 297 297 297 297 297 296 296 296 296
Wind_Speed
4 3 4 5 6 7 8 8 10 10 9 8 6 5 5 4 8 5 9 9 8 7 5 7 5 5 6 8 7 3 1 9 14 11 9 9 8 8 7 7 7 7 6 12 21 24 25 27 27 26 26 24 23 21 22 22 20 20 21 22 20 21 25 25 23 21 20 20 17 16 18 19 18 17 17 17 17 15 15 15 17 19 19 19 18 17
4 4 6 7 8 10 9 8 10 10 8 8 6 7 6 4 8 3 10 9 6 6 5 4 3 4 6 7 8 4 1 6 13 14 11 11 10 9 9 9 8 6 6 11 17 21 24 27 28 27 26 28 27 24 26 27 24 22 21 23 23 23 25 23 23 23 20 20 21 20 21 21 21 21 18 17 17 17 18 18 18 19 20 20 19 18
4 5 8 10 9 10 10 9 9 10 9 7 5 5 5 4 7 3 5 6 6 4 3 3 2 5 6 6 9 7 3 5 12 15 15 14 12 10 10 9 8 8 8 9 12 16 21 25 27 27 25 26 27 27 29 27 23 24 24 25 25 24 25 23 23 23 20 19 19 18 17 18 20 21 17 16 17 17 18 19 20 20 21 21 20 18
4 7 10 12 10 9 10 11 9 8 7 5 6 4 4 6 6 4 1 4 6 3 3 5 3 4 5 5 7 8 7 4 11 16 16 15 14 14 14 12 12 11 11 11 11 11 16 22 25 26 24 23 24 25 27 28 27 29 29 28 27 26 25 22 20 19 17 17 16 15 15 16 19 19 16 16 17 17 17 20 21 21 21 22 20 19
7 10 12 11 11 10 9 10 8 6 4 4 5 3 2 7 6 5 3 1 1 1 3 6 2 3 4 5 6 7 8 5 7 12 13 14 14 15 14 14 14 15 13 13 13 11 13 17 22 27 26 25 27 26 26 30 31 32 31 29 29 28 25 23 20 19 18 17 16 15 15 16 18 17 17 18 19 18 19 20 22 22 22 22 21 19
10 10 11 12 12 11 10 9 7 7 4 2 1 2 4 9 9 9 8 5 4 5 2 5 3 5 5 5 8 7 6 7 6 8 10 13 13 12 13 13 12 12 13 13 14 13 12 16 21 25 26 26 28 29 29 30 31 31 29 28 28 27 26 25 23 22 21 20 21 20 20 20 19 19 20 23 23 22 22 22 22 23 23 22 20 19
8 9 9 13 14 13 11 9 8 7 4 1 2 5 7 8 9 10 9 5 1 3 3 4 4 4 5 5 9 8 8 9 7 8 9 11 14 13 12 12 10 10 10 9 11 12 12 16 18 21 23 26 28 31 30 27 26 29 28 28 28 26 25 25 24 23 23 23 24 24 24 23 23 22 21 24 25 24 24 23 22 22 23 22 20 20
8 10 8 9 12 12 10 7 7 7 5 1 4 6 7 8 9 10 9 6 3 3 3 2 2 3 4 6 7 6 7 8 8 9 9 7 13 17 14 12 13 11 9 8 9 10 11 14 18 21 23 27 30 31 29 27 26 28 30 30 29 27 26 25 25 25 24 25 25 25 24 21 23 23 22 23 23 22 23 23 22 22 23 22 20 19
8 11 10 8 6 7 6 5 5 6 5 3 5 8 9 7 8 8 6 6 3 1 3 3 1 2 4 5 7 7 5 1 4 6 4 3 4 13 14 11 10 8 7 9 9 9 10 13 20 23 23 27 31 28 29 32 29 27 30 31 30 29 27 25 25 25 25 25 26 25 23 20 21 22 21 23 23 23 23 22 21 22 22 21 19 18
6 9 11 9 6 5 4 5 4 4 4 4 7 8 9 6 5 1 1 3 3 1 3 3 1 2 5 5 5 5 3 2 5 7 8 10 11 11 10 9 9 8 6 9 10 10 12 18 22 23 22 26 29 28 30 33 29 25 29 32 30 29 27 25 23 24 25 26 26 25 23 21 20 20 19 21 23 23 23 21 20 20 21 20 18 17
7 6 8 6 4 4 3 3 3 3 5 5 6 6 6 6 3 2 2 3 4 2 4 4 4 4 4 5 3 2 2 1 5 7 7 9 12 12 11 9 9 8 7 8 10 11 14 19 22 21 21 24 25 26 29 31 28 24 25 28 29 26 25 23 21 23 24 25 26 26 24 22 22 21 20 20 21 22 22 21 19 19 20 18 17 16
10 6 4 2 3 6 3 2 4 7 8 6 5 4 2 4 2 3 4 3 0 4 4 4 5 4 4 3 3 5 4 5 6 8 8 9 9 9 8 8 7 5 5 7 8 8 8 10 15 17 19 21 23 25 26 24 23 21 20 22 23 22 21 21 20 21 23 25 26 25 24 23 23 24 22 21 22 23 23 22 20 18 18 17 16 16
8 5 4 2 4 7 5 4 5 7 7 6 4 3 3 1 1 1 2 1 2 5 5 6 7 5 4 4 2 6 7 8 9 7 8 9 7 7 7 6 6 6 6 5 5 6 5 4 5 6 7 10 14 18 18 15 12 12 14 15 17 17 17 19 19 20 21 22 23 22 22 23 23 23 22 22 23 23 23 22 21 19 19 19 18 17
5 4 5 5 4 5 6 4 3 4 3 5 5 3 4 2 1 2 3 3 3 5 6 7 5 3 1 2 3 7 8 8 9 9 9 9 7 7 7 8 8 9 9 8 8 9 8 9 13 15 14 13 13 14 11 7 3 4 8 10 11 13 15 17 17 17 18 18 19 19 19 20 21 21 21 21 22 21 22 21 21 22 21 20 19 18
4 4 5 6 4 6 7 5 5 4 3 4 4 4 5 4 3 3 3 3 4 4 3 2 2 2 3 3 4 5 8 9 10 9 10 11 9 8 8 9 9 9 9 7 7 8 6 8 11 10 10 12 14 18 19 14 8 2 6 9 10 10 14 17 15 13 12 11 13 16 17 17 19 20 19 20 20 20 21 21 21 22 22 21 20 20
4 4 7 9 7 8 9 6 5 4 2 3 4 5 4 5 5 4 4 5 4 1 2 1 1 0 2 3 4 6 10 10 10 11 12 12 10 10 9 9 9 9 9 8 8 8 6 8 10 9 11 11 7 7 7 10 9 6 5 9 14 15 16 16 13 13 12 8 10 12 14 16 17 20 20 19 20 20 21 21 22 22 22 22 21 20
3 4 8 13 11 9 10 9 9 6 3 3 3 5 6 6 6 3 4 3 4 3 2 2 2 3 1 2 5 8 10 10 11 11 11 11 11 11 9 9 10 10 10 10 8 6 5 6 8 9 11 11 8 9 7 3 6 6 2 3 9 11 16 17 16 18 17 13 14 13 13 15 16 19 21 20 22 22 20 20 21 22 23 23 21 21
4 4 5 8 8 10 11 10 10 9 6 4 4 5 6 5 4 3 1 2 3 2 3 3 5 1 1 1 4 5 9 9 10 10 10 11 12 12 11 11 12 11 10 10 7 5 4 3 5 9 11 12 13 15 17 12 5 2 6 4 7 13 17 17 15 17 16 16 17 16 14 17 18 19 21 22 23 21 19 21 23 24 24 24 23 22
4 3 5 1 1 7 10 8 7 8 8 6 5 5 4 4 4 2 2 2 2 2 3 2 5 2 2 0 4 4 7 7 8 9 10 11 11 11 9 10 11 10 8 8 7 6 4 5 8 9 12 14 17 19 21 18 10 6 6 6 11 18 19 16 14 14 14 16 16 15 15 17 18 18 17 17 18 19 20 24 25 25 26 26 24 21
3 1 3 3 2 4 6 5 4 5 7 6 5 4 1 4 4 3 3 4 3 3 2 1 3 2 0 0 4 5 6 6 6 7 9 10 10 9 7 8 8 8 6 6 6 6 5 7 10 9 11 13 16 18 21 22 17 11 8 8 15 20 19 18 19 18 18 19 18 16 17 18 17 16 12 11 16 21 24 24 24 25 25 25 22 20
2 3 1 5 4 2 3 4 6 6 6 5 4 3 2 1 2 1 2 3 4 3 2 2 1 3 2 2 2 3 4 6 8 8 8 9 10 8 7 6 6 6 6 6 6 6 7 8 11 12 13 14 15 17 18 21 21 17 12 10 14 19 19 18 20 22 23 23 21 19 20 21 20 18 16 17 21 25 25 24 23 23 23 23 21 21
2 4 3 4 3 3 4 5 8 7 5 6 5 4 4 2 2 2 3 3 2 3 3 4 2 4 2 3 3 2 3 5 10 11 8 8 9 7 5 5 6 6 6 7 7 7 8 10 13 15 15 17 17 17 16 16 18 19 18 14 15 17 18 19 20 22 23 23 21 21 22 23 21 20 22 23 22 23 23 22 21 21 22 22 21 20
1 4 4 2 3 4 6 4 7 9 6 4 4 5 6 4 2 3 3 4 1 2 2 4 3 3 2 3 4 3 4 5 9 11 8 7 7 6 5 6 7 8 8 9 9 9 11 14 16 16 16 17 17 17 16 15 14 14 15 16 17 17 17 19 21 20 20 20 20 21 24 24 22 23 25 24 22 22 21 21 21 21 22 23 22 20
4 3 4 1 2 4 7 8 3 5 4 2 2 2 4 7 6 5 5 3 3 3 2 4 1 3 1 3 4 4 5 7 9 9 9 7 5 6 8 8 8 9 9 9 9 9 13 16 18 17 16 16 17 17 18 16 14 12 11 12 15 16 15 17 18 19 20 21 21 23 25 26 25 26 25 23 23 24 23 23 22 21 22 23 22 20
2 1 3 3 2 3 6 8 6 4 3 2 4 8 7 2 1 1 2 4 2 2 4 6 2 3 2 4 5 6 7 8 9 9 8 7 6 6 8 8 9 10 9 9 9 10 12 14 14 16 17 17 17 18 19 19 18 15 11 8 8 9 11 14 17 20 21 22 22 23 23 25 27 27 25 22 24 27 26 25 22 20 22 22 20 20
1 1 2 5 4 2 1 2 2 3 4 2 6 12 12 8 6 5 3 5 3 2 3 4 3 2 4 6 6 6 7 9 9 9 7 7 7 6 7 8 8 9 9 10 10 10 11 11 13 15 16 17 17 17 18 19 20 19 15 9 7 6 7 12 17 19 20 20 22 22 22 24 26 26 23 22 25 28 27 24 22 20 22 21 20 21
2 3 3 6 5 5 4 3 3 3 3 5 9 12 10 7 6 7 4 3 2 2 5 4 1 6 6 6 7 7 7 8 8 8 7 6 6 7 8 9 9 8 8 9 9 9 10 10 12 15 16 15 16 17 18 18 18 19 20 15 9 9 10 12 12 12 15 18 19 20 21 24 24 22 21 24 28 27 24 22 21 20 20 20 19 20
4 4 3 5 5 4 5 3 1 1 6 9 10 11 10 8 7 8 5 3 2 4 2 4 1 6 6 5 8 7 7 8 8 8 7 6 7 8 9 10 10 9 9 10 10 10 10 9 10 13 15 16 16 17 17 18 19 19 20 19 13 10 7 8 8 6 12 16 16 16 18 21 21 18 19 24 25 23 22 21 20 20 20 19 19 19
5 3 4 4 5 4 5 5 5 5 7 11 11 10 10 9 8 8 5 3 4 4 4 5 3 5 5 7 8 8 7 8 8 8 8 8 9 10 11 11 10 10 10 11 11 11 10 9 9 12 15 16 17 18 18 18 20 20 20 20 18 14 8 3 6 7 9 13 14 14 15 16 16 16 19 22 22 21 21 20 19 20 21 21 20 19
3 2 3 3 4 4 5 6 7 7 7 10 12 11 9 9 9 8 5 4 6 6 6 9 9 5 4 7 9 9 8 9 9 9 9 10 10 10 11 10 9 9 9 10 10 10 10 10 11 14 16 17 17 17 17 18 20 21 21 22 21 18 14 7 2 5 8 11 12 14 15 14 15 18 19 20 20 22 22 19 18 19 21 21 18 18
4 1 4 2 3 2 5 6 7 8 9 10 12 11 9 8 9 8 6 6 5 7 8 10 10 5 3 7 10 10 9 9 11 11 10 10 9 9 10 9 9 9 9 9 9 9 9 10 12 15 16 16 17 17 17 18 20 22 22 22 21 20 18 14 11 8 11 16 16 17 16 15 16 17 18 18 18 20 20 19 19 21 22 20 17 18
3 2 2 2 3 1 2 6 7 8 10 10 10 11 10 6 5 5 5 4 3 7 9 8 5 3 4 7 10 10 10 11 12 10 9 9 9 10 10 10 9 9 9 10 9 9 9 9 11 14 15 16 17 17 18 19 20 22 22 22 21 22 23 21 20 20 20 20 18 19 17 15 16 16 17 19 19 18 18 19 22 23 21 19 18 20
2 3 2 2 3 1 1 6 7 6 7 5 3 5 7 4 3 4 6 7 6 5 6 4 3 4 6 8 9 11 11 12 10 8 7 7 8 10 10 10 10 9 9 9 9 9 9 10 12 14 16 18 19 18 19 21 22 21 21 22 23 25 27 26 24 24 22 19 17 19 18 15 14 15 17 20 21 21 21 23 24 23 22 20 20 20
1 2 2 2 3 0 0 5 6 4 4 1 2 2 4 4 6 8 8 8 9 8 7 7 7 8 9 9 10 11 11 11 10 9 9 7 7 8 9 10 9 9 9 9 9 9 10 12 14 17 18 20 20 19 19 21 21 22 24 25 26 27 28 28 28 26 24 21 17 16 18 16 14 15 18 21 22 23 24 26 26 25 24 23 22 22
1 2 2 2 3 2 1 4 4 1 2 2 1 4 5 3 7 11 11 11 10 9 11 11 11 10 10 10 10 11 11 11 11 11 11 10 8 7 8 9 9 8 9 8 8 10 12 14 16 17 19 21 22 23 23 22 21 22 25 26 26 27 28 29 30 29 27 23 19 15 15 15 15 16 17 19 22 23 23 25 26 26 25 25 23 21
4 2 1 1 2 3 2 2 3 2 2 1 3 6 6 4 4 6 9 10 8 7 9 10 10 10 11 10 9 9 11 11 11 12 12 11 9 8 8 7 7 7 8 8 9 11 15 17 18 18 18 21 24 25 25 25 23 23 24 25 26 26 27 29 29 28 28 26 22 18 15 15 15 15 15 16 18 19 19 19 21 21 21 21 19 16
1 2 2 1 1 3 3 2 3 4 2 2 3 4 4 2 2 2 4 5 6 5 9 9 9 9 10 9 9 9 9 8 9 9 10 10 9 8 8 8 8 9 10 11 13 16 19 21 22 21 20 22 24 24 24 24 25 25 26 26 26 25 26 28 28 26 26 26 25 22 19 17 17 16 15 15 15 17 17 17 17 17 15 15 13 10
6 2 2 3 1 2 5 4 3 3 2 1 2 5 5 2 3 2 2 3 5 4 8 10 8 9 8 7 7 7 4 4 7 6 7 9 8 8 9 11 12 13 13 14 16 19 22 23 24 25 24 24 25 24 22 22 24 26 27 26 25 25 26 26 25 24 25 25 24 25 24 23 21 19 17 16 15 16 17 16 16 16 17 18 17 15
8 6 4 2 1 2 4 4 2 2 2 1 3 6 8 6 4 3 2 2 4 4 6 9 8 7 6 5 3 2 1 3 5 3 4 6 7 7 8 10 13 15 16 17 17 18 19 21 24 27 27 27 26 24 22 22 24 26 26 25 25 26 26 24 23 22 24 24 24 25 25 25 25 23 21 19 17 15 15 14 15 16 19 21 21 19
6 5 5 2 0 3 3 2 2 2 2 2 4 6 8 7 4 1 2 1 3 5 6 7 7 6 5 5 5 5 3 4 5 4 4 6 7 9 10 10 13 15 16 17 17 17 18 21 23 25 26 26 25 23 22 24 25 26 24 24 25 25 24 22 21 21 22 24 25 25 25 25 25 25 23 21 19 17 15 15 17 19 21 22 22 21
4 3 2 0 1 4 4 3 2 2 1 3 6 8 7 5 1 2 2 2 4 6 7 8 8 7 6 5 5 5 4 5 6 5 5 6 7 9 13 15 17 17 18 19 17 16 18 21 23 23 23 24 24 23 22 23 25 25 24 24 24 23 21 20 20 20 22 24 24 25 24 24 24 24 24 22 21 20 18 17 18 19 20 21 21 20
2 2 2 1 1 2 3 3 2 2 2 5 8 7 4 1 2 2 2 3 6 8 8 9 8 8 8 8 7 7 7 8 8 6 6 7 6 7 11 16 18 19 20 22 22 20 18 19 22 22 21 22 24 24 23 24 25 24 24 25 24 20 18 20 21 21 21 22 23 23 23 23 23 23 24 23 23 22 20 17 17 17 17 18 19 19
0 1 2 2 1 1 3 3 1 2 1 7 8 4 2 2 2 4 5 6 7 8 9 9 8 7 9 10 9 9 9 9 8 7 6 6 7 9 12 15 17 17 16 18 22 24 22 20 21 22 22 22 23 22 22 23 24 23 23 24 23 20 17 18 21 22 23 23 23 23 22 22 22 22 23 23 23 23 22 20 18 16 16 17 19 20
1 0 2 1 1 1 3 3 1 1 2 7 5 1 0 0 2 4 6 6 7 7 7 8 8 8 9 10 10 9 9 8 7 6 6 6 7 10 12 14 15 16 16 15 17 20 22 22 22 23 24 24 23 22 21 21 21 23 23 21 20 20 19 18 18 20 22 22 23 23 22 21 20 20 21 20 21 23 24 23 23 21 19 18 18 18
2 3 4 3 2 3 4 3 3 3 2 4 3 2 3 4 5 7 8 8 7 6 6 7 9 9 9 10 10 8 7 7 6 5 5 5 6 8 10 12 13 15 16 16 16 16 18 19 20 21 23 23 23 22 22 20 19 20 20 18 17 18 19 18 18 19 19 19 20 20 20 20 20 19 19 19 19 21 23 24 25 25 24 22 21 19
4 6 5 4 5 6 7 6 4 5 5 4 4 5 8 9 8 8 9 9 7 7 7 8 10 10 9 9 9 8 6 6 6 6 6 6 7 9 10 11 12 14 15 16 16 16 16 17 18 20 20 20 20 20 19 19 18 17 16 16 16 16 16 17 18 19 18 17 16 15 15 18 19 18 18 18 18 20 21 22 23 24 24 23 23 22
3 5 5 4 4 4 5 5 5 6 6 5 6 8 10 10 8 7 9 9 9 10 10 10 11 11 9 9 9 8 7 6 6 6 6 6 7 7 8 9 11 13 14 14 14 15 15 16 16 17 17 17 17 17 17 17 17 15 13 13 14 14 14 15 16 17 17 17 16 14 14 16 17 18 18 19 20 20 20 20 21 22 22 21 20 20
2 4 6 6 5 4 5 6 7 8 8 6 6 6 8 9 9 9 9 10 10 11 12 13 13 10 9 9 9 9 8 7 6 6 5 5 6 6 6 7 9 10 11 12 13 13 14 15 14 15 15 15 15 15 15 15 15 15 13 12 11 11 12 14 14 14 14 15 17 19 18 18 19 19 20 22 23 24 24 22 21 22 23 22 20 18
4 5 5 6 7 7 7 7 7 8 9 8 7 7 7 8 10 10 10 10 10 10 11 12 11 10 9 9 9 8 7 6 6 6 6 5 7 7 6 7 9 9 8 9 10 11 12 13 13 13 13 13 13 13 14 14 14 15 16 15 11 9 10 12 14 14 14 14 15 18 19 20 21 21 22 24 25 26 27 25 24 24 25 23 21 19
6 5 4 5 6 5 4 4 4 5 6 5 6 8 9 9 10 11 10 9 9 8 8 9 10 10 10 9 9 7 5 5 6 6 6 6 7 8 6 6 9 8 7 7 7 8 10 11 12 14 14 13 12 11 11 12 12 13 15 16 15 12 11 11 13 15 16 15 14 14 14 16 19 21 21 22 24 25 25 25 24 24 24 24 22 21
5 5 4 4 5 5 7 7 5 5 6 5 6 8 8 8 9 10 10 9 9 9 9 9 9 9 9 11 13 11 7 6 7 9 9 8 8 9 10 10 10 10 10 12 12 10 9 11 13 14 13 12 12 12 12 13 14 14 13 14 15 15 14 13 13 14 14 15 16 15 13 12 13 16 18 19 20 21 21 22 21 21 21 22 21 21
Wind_Direction
169 181 212 215 223 232 231 222 237 253 257 271 282 285 276 269 280 244 156 171 153 128 189 187 192 247 277 293 296 287 148 128 136 140 143 148 148 151 161 164 142 138 138 115 111 115 117 116 121 133 144 157 159 146 143 149 165 186 192 192 190 191 197 197 190 184 183 176 154 151 176 185 184 180 178 180 181 187 193 191 191 194 194 193 192 188
167 187 221 221 221 234 241 230 239 258 271 281 285 294 305 305 296 262 149 166 125 114 200 166 98 292 290 292 295 310 76 132 142 146 153 158 161 164 165 166 150 134 126 110 106 112 117 121 132 142 152 163 159 155 164 165 169 182 192 197 195 197 202 201 195 185 180 185 181 178 181 183 187 187 183 175 175 189 196 192 191 193 192 189 188 188
190 215 221 223 225 229 241 243 237 243 254 271 277 285 302 304 306 313 136 138 109 117 201 123 102 273 278 278 286 292 253 175 159 159 162 163 166 169 169 167 154 138 137 128 113 116 122 128 138 145 155 166 164 168 173 164 169 182 190 198 198 201 204 202 200 190 182 188 191 189 184 183 192 196 190 177 182 193 192 191 194 192 190 188 186 187
190 224 216 219 227 224 236 245 237 237 241 245 248 255 273 278 292 305 328 127 144 169 156 131 160 266 297 304 301 295 280 224 168 167 167 167 169 173 176 171 161 157 154 144 128 126 130 135 143 149 159 168 165 178 179 162 172 186 188 195 198 200 203 202 200 191 188 194 197 197 188 188 196 196 187 179 187 192 187 192 197 193 191 188 184 182
217 215 207 215 227 225 235 248 239 228 238 244 233 198 250 281 290 292 305 95 143 314 113 120 69 322 291 281 289 290 286 273 190 174 168 171 177 174 174 177 171 165 163 156 144 141 141 145 154 157 164 170 169 187 191 171 177 187 186 193 197 197 198 198 194 189 192 199 200 194 183 187 192 186 177 174 181 188 188 192 195 195 193 187 184 183
233 214 191 203 223 230 231 243 241 215 211 273 239 190 243 279 299 307 321 8 23 326 317 101 60 304 267 238 256 268 270 268 241 207 187 177 180 177 173 180 179 167 167 162 150 149 151 155 162 166 169 170 173 190 194 181 181 185 186 193 196 194 192 192 192 191 192 193 192 186 174 175 179 177 177 177 181 188 188 187 189 191 190 186 185 187
237 226 193 194 207 222 225 233 236 208 162 68 235 217 227 254 285 295 303 331 81 256 288 94 118 270 293 261 245 242 248 258 258 241 215 178 171 179 181 176 170 171 172 154 142 148 155 159 167 176 175 170 177 188 190 191 190 184 186 194 194 191 188 188 190 192 190 185 185 185 177 172 173 177 183 184 186 188 186 184 183 184 185 185 187 188
217 228 231 208 198 209 219 224 215 170 132 185 246 249 237 229 250 261 265 267 220 219 320 46 148 249 290 271 256 245 245 259 273 265 248 209 175 173 176 172 167 174 168 135 134 152 161 168 175 182 178 173 180 184 185 195 199 189 188 193 192 189 185 185 185 187 190 186 184 185 180 174 176 180 183 186 189 189 186 182 180 181 184 185 187 188
201 210 233 233 205 204 202 187 167 135 136 197 214 243 251 227 231 248 257 265 246 197 328 334 327 296 274 271 281 273 261 316 351 329 341 16 135 158 162 158 146 146 134 120 135 157 168 179 185 186 180 178 183 184 184 192 198 196 191 190 188 186 183 183 183 184 188 187 185 185 182 180 184 185 181 185 188 187 185 180 178 181 184 186 187 187
217 200 211 223 216 200 177 158 153 144 169 198 203 234 264 255 230 188 43 319 346 61 255 255 209 266 280 290 297 282 282 78 75 37 36 54 71 109 125 111 113 126 125 126 139 161 179 186 192 192 185 184 187 188 190 191 194 195 192 188 185 185 185 183 183 186 187 187 186 186 185 180 183 185 179 179 183 185 186 181 177 180 183 184 185 184
261 218 203 218 206 161 120 121 162 214 220 207 209 228 265 274 259 76 59 29 15 319 243 235 205 205 263 301 349 23 328 284 109 77 51 60 73 89 104 114 134 148 145 139 143 164 181 187 193 194 192 192 192 194 198 196 193 191 189 187 183 184 186 184 186 188 186 186 185 187 187 178 176 180 177 174 176 181 185 183 179 180 183 181 177 175
259 246 220 231 175 132 117 220 202 224 232 212 202 196 221 295 335 12 1 41 336 263 251 263 261 232 234 268 344 23 26 31 66 87 84 73 71 82 98 119 132 128 137 145 145 154 166 184 199 200 198 199 197 200 205 202 195 192 193 189 179 177 181 182 185 186 184 185 184 186 186 179 176 179 178 174 173 177 180 180 178 178 180 178 172 166
249 243 240 241 188 150 157 216 212 221 227 201 193 152 121 325 6 40 317 335 228 246 227 232 251 248 226 234 321 20 30 40 49 67 81 80 85 90 78 70 66 54 57 67 63 59 50 16 317 287 260 234 218 217 218 212 198 189 195 193 175 166 171 178 184 183 181 183 183 185 184 181 179 178 178 175 174 177 178 176 175 173 173 170 164 159
245 260 260 246 204 155 155 171 189 220 202 162 175 139 129 159 134 195 238 228 225 241 224 205 214 241 247 272 331 32 34 38 53 56 61 65 75 85 66 45 43 46 47 46 46 44 40 34 17 356 340 330 323 326 324 302 272 195 198 198 171 155 165 178 186 185 182 182 182 184 184 184 183 178 175 177 176 176 177 174 171 169 165 159 155 155
198 239 247 245 215 169 177 179 180 209 189 167 179 148 149 164 162 202 208 196 216 252 263 182 143 182 170 247 292 46 47 37 48 49 50 53 54 58 49 39 39 40 42 45 55 59 68 70 51 27 10 358 343 344 345 337 337 316 210 195 174 165 175 183 186 184 184 180 173 180 185 184 185 179 173 177 177 173 172 169 164 162 158 153 153 155
199 220 207 220 224 176 174 186 199 236 247 210 181 155 181 187 170 209 219 190 163 81 331 16 79 260 164 242 296 58 56 40 44 43 45 48 48 52 42 35 38 38 42 42 46 50 49 55 52 50 54 48 29 7 335 314 314 298 255 206 195 193 179 172 174 173 174 170 161 174 187 182 181 178 172 174 175 169 165 164 160 158 157 156 156 154
204 247 200 201 214 179 160 177 192 208 234 233 199 183 207 198 163 182 253 237 113 97 269 170 103 326 9 341 343 57 58 39 38 37 40 42 42 45 40 37 41 43 50 49 44 39 28 33 34 40 68 90 92 83 86 18 309 275 248 186 186 174 159 160 168 169 166 163 159 166 185 187 183 181 177 174 170 165 165 166 165 163 162 160 157 154
195 260 235 192 200 183 166 176 191 198 207 225 236 207 200 203 190 163 227 298 79 120 258 161 142 227 126 310 323 54 65 40 33 34 37 38 39 42 39 42 48 50 55 53 50 43 28 23 26 39 66 97 107 101 101 87 43 154 151 143 132 130 146 158 159 158 158 160 162 163 177 188 188 186 182 173 166 166 169 169 169 167 164 161 156 150
193 250 293 305 199 184 167 168 195 214 215 215 240 234 182 168 211 206 178 231 124 147 269 151 124 80 82 249 323 31 69 53 38 39 44 43 45 49 43 45 53 54 52 50 45 39 29 16 23 50 74 83 93 102 108 101 77 76 119 146 144 138 146 149 139 144 155 161 165 165 173 184 187 186 183 174 169 170 164 159 159 159 156 156 153 148
188 136 301 280 269 205 179 172 192 219 227 235 266 274 210 147 172 199 191 183 149 157 232 107 86 33 254 222 354 22 60 67 56 53 57 54 53 52 45 45 49 51 51 47 40 35 37 31 26 44 67 73 90 105 109 105 95 82 86 121 143 142 140 144 149 158 163 164 167 169 173 177 178 178 178 171 167 165 159 152 150 150 149 150 150 149
180 109 227 270 308 299 213 188 179 186 196 217 257 269 266 187 147 134 244 192 147 149 180 127 80 273 243 105 67 50 63 82 83 72 64 64 63 52 42 48 49 48 52 48 45 37 34 44 40 35 41 55 78 91 95 102 107 113 113 113 131 139 139 145 159 170 172 169 170 174 176 173 170 168 164 158 157 156 154 151 149 148 147 147 150 153
159 142 185 257 309 301 248 191 176 189 186 173 193 215 219 213 131 106 293 269 146 126 157 143 166 264 267 96 104 73 47 80 90 85 74 67 70 62 45 51 50 44 46 46 48 44 29 33 41 40 37 44 57 67 77 92 106 121 131 123 115 125 137 151 164 173 176 174 175 178 175 169 166 164 158 152 151 151 151 151 152 152 152 151 154 157
92 130 148 219 240 251 272 249 191 201 215 192 188 205 202 200 166 151 215 252 169 90 87 108 122 267 280 100 116 96 53 70 84 88 87 75 74 72 55 51 50 44 43 44 43 40 34 30 34 40 41 44 47 50 63 81 91 105 121 124 119 119 133 154 166 171 176 179 181 178 173 167 165 163 157 150 150 153 153 156 157 157 159 158 157 157
6 94 127 175 296 308 312 310 271 194 204 240 292 277 212 208 205 183 177 175 154 157 123 97 104 256 239 106 116 110 80 72 76 80 82 77 69 65 57 50 51 48 43 45 44 40 40 37 35 35 34 38 44 43 47 60 72 80 87 101 115 121 131 151 166 174 181 184 179 175 173 170 167 163 157 152 156 158 157 159 161 161 164 163 161 157
344 38 107 102 28 346 331 326 339 11 25 29 22 15 6 339 166 121 86 81 100 188 143 125 166 244 174 128 112 99 81 70 69 69 70 69 63 60 59 49 47 51 44 39 44 45 43 39 36 34 32 33 38 41 42 45 51 61 69 86 111 119 130 154 170 179 185 183 176 175 174 170 166 162 160 161 162 162 160 162 163 163 165 166 165 157
158 19 82 110 129 163 216 294 309 320 320 353 31 27 18 17 50 72 63 64 55 341 64 102 154 172 144 132 116 99 87 76 70 68 63 62 62 62 64 57 45 45 41 36 40 45 44 40 35 33 34 35 36 39 42 42 42 46 54 79 128 143 161 180 181 178 181 178 173 174 174 171 167 163 165 165 161 159 160 161 162 162 165 168 163 154
93 35 63 103 120 149 156 174 218 263 339 33 31 27 22 19 57 87 86 77 105 77 40 2 141 136 139 131 115 100 86 80 73 70 67 61 63 63 62 59 49 40 38 37 39 41 41 40 35 31 30 33 39 40 41 43 43 41 44 58 99 142 179 203 197 178 179 180 174 173 174 173 171 169 166 161 157 155 154 157 161 163 166 167 158 152
82 36 26 76 81 108 127 129 158 344 34 51 41 27 21 17 47 79 93 112 111 91 65 298 275 120 121 102 98 96 86 83 75 70 68 58 57 61 59 56 48 38 34 36 38 36 38 38 35 33 30 30 37 41 41 43 43 43 44 46 64 103 153 221 233 201 189 186 177 173 172 171 173 172 164 160 157 151 150 157 163 165 167 165 157 155
87 36 359 59 67 61 70 72 77 71 58 59 53 36 20 14 36 64 75 100 103 114 177 198 152 109 108 95 92 89 82 80 75 68 65 60 56 59 61 56 47 36 30 33 34 31 32 35 34 36 34 32 35 40 41 40 39 42 43 41 49 67 84 176 229 240 216 191 173 164 161 162 169 167 159 159 159 154 154 160 164 165 167 166 164 164
82 356 328 59 81 70 74 72 70 75 71 62 53 42 26 16 28 46 34 36 86 122 153 136 111 87 89 98 91 83 76 72 68 59 53 54 57 60 62 58 48 40 32 31 32 28 24 24 28 33 34 34 37 42 42 39 38 40 41 41 46 52 61 89 155 261 220 179 150 145 142 138 150 159 158 156 155 156 159 161 161 160 160 159 161 161
87 240 282 32 72 76 91 88 77 81 85 70 50 35 31 27 20 27 22 12 58 105 120 115 108 91 79 89 82 75 71 67 63 56 48 45 47 54 62 59 49 44 37 31 29 28 22 16 20 26 27 29 39 45 43 40 41 42 42 43 45 46 53 65 56 61 127 133 125 130 129 118 125 141 148 149 145 146 154 158 156 153 151 151 149 149
100 168 275 37 63 351 90 99 90 87 85 69 44 21 19 36 32 22 26 9 42 117 120 109 109 117 104 90 76 66 64 64 62 56 52 47 42 47 54 53 45 39 35 29 23 21 20 16 17 20 19 23 36 45 46 46 45 43 42 44 46 48 54 58 52 58 88 110 123 134 133 121 120 122 126 132 133 132 140 145 144 143 145 145 144 145
128 136 153 116 97 6 84 113 106 90 75 52 28 2 356 19 74 52 34 29 36 89 114 106 103 107 96 87 79 70 63 62 58 51 49 52 49 48 49 49 46 40 33 28 20 15 16 17 19 20 21 25 35 44 51 53 52 49 47 47 49 52 54 56 55 55 66 85 113 136 143 136 126 115 112 119 121 122 127 130 129 130 131 130 132 137
355 122 141 129 110 118 138 102 90 79 84 63 263 292 328 1 74 71 49 42 51 66 79 75 72 75 77 79 83 82 74 66 61 52 45 46 51 52 50 46 43 39 32 23 19 15 11 14 22 27 32 33 36 44 51 56 57 55 53 51 52 54 53 55 56 55 58 66 86 120 142 145 133 121 117 117 117 116 117 117 115 115 116 117 117 118
104 90 111 106 111 146 140 88 78 82 140 169 278 351 345 11 83 80 64 52 58 76 83 82 82 82 84 90 91 90 88 80 70 59 49 42 43 50 53 46 35 34 30 20 19 18 13 15 21 27 35 40 41 45 48 52 56 57 54 53 53 53 54 55 55 53 55 61 71 94 123 134 130 123 118 116 114 112 111 110 108 107 107 106 104 102
143 139 116 100 113 127 120 91 117 141 139 108 39 14 360 358 45 65 62 47 44 76 90 92 101 103 101 106 105 102 102 91 74 62 54 48 46 47 53 52 39 37 35 25 25 24 19 20 24 28 37 45 48 50 51 53 57 58 56 55 54 52 53 54 53 50 51 55 62 77 100 115 117 115 115 113 111 109 108 105 105 108 107 104 99 91
117 158 142 143 127 115 108 75 97 123 105 34 33 13 0 357 342 10 71 48 26 71 104 105 109 112 113 119 126 133 127 99 71 57 48 45 45 44 48 50 42 38 37 34 35 37 33 31 32 36 41 46 48 51 54 56 59 59 56 54 52 52 52 52 50 47 48 51 56 67 82 97 105 109 112 113 112 113 112 105 106 114 117 118 119 110
10 2 133 159 170 97 113 112 114 153 164 81 25 348 346 334 294 319 90 64 6 46 113 120 119 125 132 142 156 171 162 74 58 52 42 39 41 42 47 48 44 39 35 32 34 38 39 39 39 39 41 43 44 46 50 54 58 60 57 53 50 51 52 51 48 46 48 51 54 62 72 83 92 98 106 112 117 119 118 112 110 118 125 129 134 133
24 18 38 76 110 110 129 137 129 158 160 80 347 329 333 328 320 345 84 86 357 15 102 119 123 128 134 140 144 159 102 78 81 70 50 46 40 40 45 47 44 40 37 37 37 38 40 43 44 43 41 40 41 43 49 54 56 58 56 52 51 52 52 50 50 50 52 54 58 64 70 76 81 85 92 102 112 119 121 115 111 120 128 130 130 128
27 32 31 10 47 107 108 106 75 97 114 23 327 312 317 322 328 45 150 140 19 27 68 96 103 104 107 105 83 55 50 109 120 102 76 65 50 44 48 48 42 37 35 37 40 42 44 45 47 47 43 40 42 45 49 53 55 54 53 52 51 51 52 54 57 59 60 62 64 67 70 72 74 76 78 86 98 109 114 114 114 120 126 127 127 127
26 40 54 35 89 78 86 103 90 83 70 345 314 304 313 321 337 137 162 149 78 59 58 70 77 78 82 91 90 77 65 79 93 92 76 67 55 48 51 54 50 44 39 39 41 45 48 48 49 51 48 45 46 47 48 52 53 50 49 49 47 46 50 59 65 67 67 67 68 69 72 73 73 73 74 80 90 98 102 108 116 121 124 125 126 125
9 8 33 35 25 59 89 101 95 99 42 333 310 302 322 351 157 128 78 80 85 75 68 70 72 76 81 81 84 97 95 83 80 78 67 63 55 41 43 50 50 44 39 39 41 43 45 46 47 49 48 47 47 45 46 51 51 48 48 46 41 41 50 60 67 72 71 68 68 70 72 73 73 74 76 81 88 92 93 98 107 114 119 122 122 120
104 111 74 55 358 52 92 91 109 147 1 332 322 315 4 49 119 110 85 76 76 79 81 79 74 81 92 91 88 94 96 89 83 80 72 67 61 48 44 46 47 44 40 41 44 42 40 40 42 42 43 45 45 43 44 48 50 49 48 43 39 45 56 61 65 69 70 69 69 69 70 71 72 74 76 80 86 89 89 90 95 101 109 114 114 113
317 209 127 119 295 352 100 105 109 126 329 328 334 11 254 263 128 110 101 90 80 83 89 89 87 89 95 100 99 96 93 90 87 85 76 65 61 58 52 48 46 45 45 50 53 49 46 44 41 40 41 42 41 39 39 44 50 50 47 43 44 51 58 62 65 66 67 69 68 67 68 70 70 72 75 78 84 87 88 89 91 93 97 103 107 107
38 86 95 83 55 54 80 101 105 86 8 333 348 51 84 100 103 103 105 103 97 97 99 101 103 100 98 101 100 94 92 92 89 85 78 67 58 55 53 49 45 45 49 55 56 54 53 53 48 44 43 41 39 37 35 38 46 51 49 47 51 56 57 60 64 68 70 71 68 65 68 72 72 71 72 74 78 82 85 88 90 89 90 93 95 94
129 125 108 95 102 88 71 70 81 73 47 23 28 53 73 84 90 98 103 102 103 107 108 110 111 110 108 108 104 101 107 112 107 100 92 85 79 71 66 60 52 51 56 60 58 55 55 56 54 50 47 42 39 37 34 36 43 49 49 49 52 57 61 62 65 69 70 69 68 67 68 69 70 69 70 73 76 77 80 84 86 85 85 86 87 86
102 104 84 87 127 115 71 65 70 63 50 40 50 66 75 78 81 91 99 102 107 111 112 114 116 117 120 123 123 127 135 140 135 126 118 114 114 111 103 90 74 67 67 66 62 59 57 55 55 54 51 46 41 38 37 37 40 45 49 50 51 56 62 66 69 73 72 67 66 70 74 73 70 68 70 75 79 79 78 80 82 81 77 75 78 80
100 99 77 68 78 83 88 97 88 70 57 42 51 73 83 87 92 95 101 109 115 117 120 124 126 130 135 135 136 142 152 161 156 146 142 145 148 152 146 122 102 91 86 80 72 66 62 60 59 58 56 51 44 40 39 38 37 38 41 43 48 56 59 60 66 75 78 76 76 79 83 82 77 74 75 76 78 78 77 75 77 76 71 67 67 71
80 93 88 88 93 91 99 112 106 83 65 49 53 70 78 88 99 101 102 109 113 116 121 126 129 135 140 145 150 150 150 162 165 155 153 155 156 166 170 141 119 109 103 98 89 79 73 70 66 61 58 54 48 43 41 41 39 37 36 37 46 64 68 60 61 68 76 85 90 89 87 84 81 80 80 80 79 78 76 75 74 74 72 68 66 66
83 103 116 113 108 103 113 136 134 103 87 73 75 82 83 87 95 98 100 104 107 108 109 107 108 112 117 126 137 140 144 163 166 154 143 142 150 160 163 143 130 121 102 87 87 91 92 86 75 66 58 53 50 47 42 40 41 42 41 42 50 68 81 75 67 65 68 78 91 97 94 89 85 84 85 87 86 85 84 81 78 76 76 74 70 67
81 108 115 107 101 102 110 117 115 106 108 110 100 92 90 93 96 98 100 100 97 100 101 96 95 96 91 89 90 87 87 98 98 91 85 83 93 102 99 93 93 86 70 53 44 52 77 87 80 72 63 56 56 51 40 37 42 48 50 47 49 58 70 76 71 64 64 72 82 90 96 98 93 89 90 91 89 90 91 91 87 83 81 78 75 71